Home   Weather   Karlsruhe   Past weeks

Flag for Germany Past Weather in Karlsruhe, Baden-Württemberg, Germany — Yesterday and Last 2 Weeks

Now
34 °F

Passing clouds.


Feels Like: 29 °F
Forecast: 20 / 36 °F
Wind: 6 mph from North

Location: Karlsruhe - Baden Wurttemberg

Current Time: Dec 4, 2016 at 5:25:14 pm

Latest Report: Dec 4, 2016 at 4:50 pm


Visibility: N/A

Pressure: 30.30 "Hg

Humidity: 81%

Dew Point: 28 °F

Location of KarlsruheLocation

Past Weather in Karlsruhe — Graph

°F

Karlsruhe Temperature Yesterday

Maximum temperature yesterday: 41 °F (at 1:20 pm)
Minimum temperature yesterday: 28 °F (at 10:20 pm)
Average temperature yesterday: 35 °F

High & Low Weather Summary for the Past Weeks

 TemperatureHumidityPressure
High63 °F (Nov 20, 2:20 pm)100% (Nov 20, 4:50 am)30.60 "Hg (Nov 20, 4:50 am)
Low18 °F (Nov 30, 7:20 am)44% (Nov 20, 11:50 am)29.59 "Hg (Nov 20, 1:20 pm)
Average41 °F86%30.10 "Hg
* Reported Nov 19 3:20 pm — Dec 4 3:50 pm, Karlsruhe, Weather by CustomWeather, © 2016

Note: Actual official high and low records may vary slightly from our data, if they occured in-between our weather recording intervals... More about our weather records

Advertising

Karlsruhe Weather History for the Previous 24 Hours

Scroll right to see more
 ConditionsComfort  
Time TempWeatherWind HumidityBarometerVisibility
3:50 pm
Sun, Dec 4
36 °FSunny.8 mph81%30.27 "Hg10 mi
3:20 pm37 °FSunny.9 mph75%30.30 "Hg10 mi
2:50 pm37 °FSunny.8 mph75%30.30 "Hg10 mi
2:20 pm37 °FSunny.9 mph75%30.30 "Hg10 mi
1:50 pm37 °FSunny.8 mph70%30.30 "Hg10 mi
1:20 pm36 °FSunny.8 mph75%30.30 "Hg10 mi
12:50 pm36 °FPassing clouds.8 mph75%30.30 "HgN/A
12:20 pm34 °FSunny.7 mph81%30.30 "Hg10 mi
11:50 am32 °FSunny.7 mph87%30.30 "Hg10 mi
11:20 am32 °FSunny.7 mph87%30.30 "Hg10 mi
10:50 am30 °FSunny.7 mph93%30.33 "Hg10 mi
10:20 am28 °FSunny.6 mph93%30.30 "Hg10 mi
9:50 am28 °FSunny.5 mph93%30.30 "Hg10 mi
9:20 am25 °FSunny.3 mph100%30.30 "Hg10 mi
8:50 am23 °FSunny.5 mph100%30.30 "Hg10 mi
8:20 am23 °FSunny.3 mph100%30.30 "Hg10 mi
7:50 am23 °FClear.5 mph100%30.30 "Hg10 mi
6:50 am21 °FClear.3 mph100%30.27 "Hg10 mi
6:20 am19 °FClear.2 mph100%30.27 "Hg10 mi
5:50 am21 °FClear.2 mph100%30.27 "Hg10 mi
5:20 am19 °FClear.2 mph100%30.27 "Hg10 mi
11:20 pm
Sat, Dec 3
28 °FClear.12 mph93%30.24 "Hg10 mi
10:50 pm28 °FClear.10 mph93%30.24 "Hg10 mi
10:20 pm28 °FClear.10 mph93%30.24 "Hg10 mi
9:50 pm30 °FClear.10 mph86%30.24 "Hg10 mi
9:20 pm30 °FClear.13 mph93%30.24 "Hg10 mi
8:50 pm30 °FClear.15 mph93%30.24 "Hg10 mi
8:20 pm30 °FClear.14 mph86%30.24 "Hg10 mi
7:50 pm32 °FClear.13 mph87%30.21 "Hg10 mi
7:20 pm32 °FClear.13 mph80%30.21 "Hg10 mi
6:50 pm34 °FClear.14 mph75%30.21 "Hg10 mi
6:20 pm34 °FClear.13 mph81%30.21 "Hg10 mi
5:50 pm36 °FClear.12 mph75%30.21 "Hg10 mi
5:20 pm36 °FClear.13 mph75%30.21 "Hg10 mi
Weather by CustomWeather, © 2016

See weather overviewHow to use our weather pages